contact:dominique.lefevre@mio.osupytheas.fr, maurice.libes@osupytheas.fr, didier.mallarino@osupytheas.fr
Project:EMSO http://www.emso-fr.org/EMSO-France
Depth: 2436.0 m
Title:EMSO Ligure Ouest : Data MII capteur AQUADOPP
Date,Latitude,Longitude,X_East,Y_North,Z_Up,Amplitude_X,Amplitude_Y,Amplitude_Z,Batterie,SoundSpeed,Heading,Pitch,Roll,Pressure,TIS,Speed,Direction
, degrees North, degrees East, m.s-1, m.s-1,m.s-1, 1, 1, 1, Volt, m.s-1, degree, degree, degree, dbar, degree_C, m.s-1, degree
2020-01-29T00:04:03,42.805,6.029,-0.008,0.033,-0.008,109.0,122.0,105.0,13.4,1505.3,324.4,-0.7,1.8,2470.214,13.31,0.033,346.4
2020-01-29T00:07:03,42.805,6.029,-0.005,0.024,0.013,108.0,120.0,105.0,13.4,1505.3,323.6,-0.7,1.9,2470.161,13.32,0.024,348.2
2020-01-29T00:13:02,42.805,6.029,-0.008,0.022,0.011,110.0,119.0,105.0,13.3,1505.3,326.9,-0.7,1.8,2470.216,13.31,0.023,340.0
2020-01-29T00:16:03,42.805,6.029,-0.029,0.018,-0.006,109.0,118.0,104.0,13.4,1505.3,324.0,-0.7,1.8,2470.14,13.31,0.034,301.8
2020-01-29T00:19:03,42.805,6.029,0.005,0.0,0.024,110.0,118.0,105.0,13.4,1505.3,326.4,-0.7,1.8,2470.156,13.32,0.005,90.0
2020-01-29T00:22:03,42.805,6.029,-0.007,0.031,-0.017,109.0,121.0,103.0,13.3,1505.3,325.9,-0.7,1.8,2470.201,13.32,0.031,347.3
2020-01-29T00:25:03,42.805,6.029,0.015,0.021,0.0,111.0,119.0,107.0,13.4,1505.3,322.9,-0.7,1.8,2470.139,13.32,0.025,35.5
2020-01-29T00:28:03,42.805,6.029,0.008,0.022,0.013,111.0,119.0,106.0,13.4,1505.3,324.9,-0.7,1.8,2470.147,13.33,0.023,20.0
2020-01-29T00:31:03,42.805,6.029,0.003,0.028,-0.004,110.0,119.0,104.0,13.3,1505.3,326.4,-0.7,1.8,2470.144,13.33,0.028,6.1
2020-01-29T00:34:03,42.805,6.029,-0.009,0.034,-0.021,110.0,119.0,106.0,13.4,1505.3,324.6,-0.7,1.8,2470.112,13.33,0.035,345.2
2020-01-29T00:37:03,42.805,6.029,-0.005,0.029,-0.002,108.0,120.0,104.0,13.4,1505.3,323.1,-0.7,1.8,2470.156,13.33,0.029,350.2
2020-01-29T00:40:03,42.805,6.029,0.005,0.026,-0.015,110.0,118.0,105.0,13.4,1505.3,326.7,-0.7,1.8,2470.105,13.33,0.026,10.9
2020-01-29T00:43:03,42.805,6.029,-0.015,0.023,-0.002,110.0,119.0,105.0,13.3,1505.3,327.4,-0.7,1.8,2470.115,13.33,0.027,326.9
2020-01-29T00:46:03,42.805,6.029,0.004,0.039,0.012,110.0,118.0,104.0,13.3,1505.3,324.4,-0.7,1.8,2470.151,13.33,0.039,5.9
2020-01-29T00:49:03,42.805,6.029,-0.008,0.004,-0.01,108.0,121.0,106.0,13.4,1505.3,323.4,-0.7,1.8,2470.121,13.33,0.008,296.6
2020-01-29T00:52:02,42.805,6.029,0.002,0.02,0.001,109.0,118.0,106.0,13.3,1505.3,327.4,-0.7,1.8,2470.113,13.33,0.02,5.7
2020-01-29T00:55:03,42.805,6.029,-0.001,0.03,-0.017,108.0,118.0,105.0,13.3,1505.3,327.3,-0.7,1.8,2470.164,13.33,0.03,358.1
2020-01-29T00:58:03,42.805,6.029,0.017,0.028,-0.003,109.0,119.0,104.0,13.3,1505.3,325.1,-0.7,1.8,2470.084,13.33,0.032,31.3
2020-01-29T01:04:03,42.805,6.029,-0.011,0.059,0.042,112.0,121.0,106.0,13.3,1505.3,326.6,-0.7,1.8,2470.129,13.31,0.06,349.4
2020-01-29T01:07:03,42.805,6.029,-0.003,0.035,-0.014,110.0,121.0,106.0,13.4,1505.3,327.7,-0.7,1.8,2470.167,13.32,0.035,355.1
2020-01-29T01:10:03,42.805,6.029,0.0,0.018,-0.009,109.0,119.0,103.0,13.3,1505.3,325.1,-0.7,1.9,2470.094,13.32,0.018,0.0
2020-01-29T01:13:03,42.805,6.029,0.01,0.029,-0.011,109.0,120.0,104.0,13.4,1505.3,326.8,-0.7,1.8,2470.127,13.33,0.03,19.0
2020-01-29T01:16:03,42.805,6.029,0.02,0.018,-0.008,109.0,120.0,105.0,13.4,1505.3,325.3,-0.7,1.8,2470.154,13.33,0.026,48.0
2020-01-29T01:19:03,42.805,6.029,-0.015,0.035,-0.038,109.0,121.0,104.0,13.4,1505.3,327.1,-0.7,1.8,2470.101,13.33,0.038,336.8
2020-01-29T01:22:02,42.805,6.029,-0.006,0.038,0.007,110.0,119.0,105.0,13.4,1505.3,327.4,-0.7,1.8,2470.103,13.33,0.038,351.0
2020-01-29T01:25:03,42.805,6.029,0.01,0.045,0.007,110.0,121.0,105.0,13.3,1505.3,325.8,-0.8,1.8,2470.118,13.33,0.046,12.5
2020-01-29T01:28:03,42.805,6.029,-0.001,0.03,0.004,109.0,120.0,105.0,13.4,1505.3,323.7,-0.7,1.8,2470.134,13.33,0.03,358.1
2020-01-29T01:31:03,42.805,6.029,0.009,0.036,-0.022,108.0,121.0,105.0,13.4,1505.3,328.0,-0.7,1.8,2470.107,13.33,0.037,14.0
2020-01-29T01:37:02,42.805,6.029,-0.007,0.028,0.008,110.0,119.0,105.0,13.4,1505.3,323.4,-0.8,1.8,2470.102,13.31,0.028,346.0
2020-01-29T01:40:03,42.805,6.029,-0.005,0.029,-0.041,111.0,121.0,104.0,13.4,1505.3,325.9,-0.7,1.9,2470.106,13.32,0.029,350.2
2020-01-29T01:43:03,42.805,6.029,0.017,0.033,0.002,109.0,119.0,105.0,13.4,1505.3,325.4,-0.7,1.8,2470.133,13.32,0.037,27.3
2020-01-29T01:46:03,42.805,6.029,-0.015,0.025,-0.005,110.0,120.0,104.0,13.4,1505.3,324.5,-0.7,1.8,2470.116,13.33,0.029,329.0
2020-01-29T01:49:03,42.805,6.029,0.012,0.014,0.001,109.0,121.0,106.0,13.4,1505.3,325.0,-0.7,1.8,2470.094,13.33,0.018,40.6
2020-01-29T01:52:03,42.805,6.029,0.0,0.027,-0.003,110.0,120.0,106.0,13.3,1505.3,326.1,-0.7,1.8,2470.091,13.33,0.026,0.0
2020-01-29T01:55:03,42.805,6.029,0.015,0.021,0.008,110.0,121.0,105.0,13.4,1505.3,324.3,-0.7,1.8,2470.069,13.33,0.025,35.5
2020-01-29T01:58:02,42.805,6.029,0.013,0.014,0.02,110.0,121.0,105.0,13.4,1505.3,323.8,-0.7,1.8,2470.123,13.33,0.019,42.9
2020-01-29T02:04:03,42.805,6.029,-0.015,0.023,-0.033,109.0,122.0,106.0,13.4,1505.3,323.6,-0.7,1.8,2470.162,13.31,0.027,326.9
2020-01-29T02:07:03,42.805,6.029,0.015,0.004,-0.03,109.0,123.0,103.0,13.4,1505.3,327.1,-0.8,1.8,2470.125,13.32,0.015,75.1
2020-01-29T02:10:03,42.805,6.029,-0.02,0.019,-0.014,109.0,122.0,106.0,13.4,1505.3,326.7,-0.7,1.8,2470.143,13.32,0.027,313.5
2020-01-29T02:13:03,42.805,6.029,0.006,0.007,-0.009,109.0,122.0,105.0,13.4,1505.3,328.4,-0.7,1.8,2470.117,13.32,0.009,40.6
2020-01-29T02:16:03,42.805,6.029,0.032,0.04,-0.006,110.0,121.0,104.0,13.4,1505.3,326.9,-0.7,1.8,2470.12,13.33,0.051,38.7
2020-01-29T02:19:03,42.805,6.029,0.0,0.024,0.001,109.0,120.0,105.0,13.4,1505.3,327.5,-0.8,1.8,2470.12,13.33,0.024,0.0
2020-01-29T02:22:03,42.805,6.029,0.012,0.03,0.004,108.0,123.0,106.0,13.3,1505.3,324.3,-0.7,1.8,2470.12,13.33,0.032,21.8
2020-01-29T02:25:03,42.805,6.029,0.0,0.033,-0.002,109.0,122.0,105.0,13.4,1505.3,326.8,-0.7,1.9,2470.109,13.33,0.033,0.0
2020-01-29T02:28:03,42.805,6.029,0.004,0.023,-0.029,111.0,121.0,105.0,13.3,1505.3,323.2,-0.7,1.8,2470.113,13.33,0.023,9.9
2020-01-29T02:31:03,42.805,6.029,0.007,0.026,-0.01,110.0,122.0,104.0,13.4,1505.3,325.6,-0.7,1.8,2470.103,13.33,0.026,15.1
2020-01-29T02:37:02,42.805,6.029,0.019,0.009,-0.013,110.0,123.0,104.0,13.3,1505.3,323.5,-0.7,1.8,2470.135,13.31,0.021,64.7
2020-01-29T02:40:03,42.805,6.029,0.028,0.013,-0.007,110.0,122.0,104.0,13.4,1505.3,326.6,-0.7,1.8,2470.126,13.31,0.03,65.1
2020-01-29T02:43:03,42.805,6.029,0.005,0.026,-0.019,109.0,122.0,105.0,13.3,1505.3,325.3,-0.7,1.9,2470.115,13.32,0.026,10.9
2020-01-29T02:46:03,42.805,6.029,0.012,0.028,0.004,109.0,122.0,104.0,13.3,1505.3,325.0,-0.7,1.8,2470.124,13.32,0.03,23.2
2020-01-29T02:49:03,42.805,6.029,0.013,0.036,-0.019,110.0,123.0,104.0,13.4,1505.3,325.4,-0.7,1.8,2470.132,13.32,0.038,19.9
2020-01-29T02:52:02,42.805,6.029,0.022,0.012,0.006,108.0,121.0,103.0,13.3,1505.3,327.7,-0.7,1.8,2470.12,13.32,0.025,61.4
2020-01-29T02:55:03,42.805,6.029,0.004,0.01,-0.039,108.0,121.0,104.0,13.3,1505.3,323.4,-0.7,1.8,2470.11,13.32,0.01,21.8
2020-01-29T02:58:03,42.805,6.029,0.014,0.035,-0.049,109.0,122.0,103.0,13.4,1505.3,323.2,-0.7,1.8,2470.092,13.32,0.037,21.8
2020-01-29T03:04:03,42.805,6.029,0.025,0.026,0.013,108.0,120.0,105.0,13.4,1505.2,326.5,-0.7,1.8,2470.164,13.3,0.036,43.9
2020-01-29T03:07:03,42.805,6.029,0.018,0.017,-0.024,109.0,121.0,106.0,13.4,1505.3,327.8,-0.7,1.8,2470.102,13.31,0.024,46.6
2020-01-29T03:10:03,42.805,6.029,0.011,0.037,-0.016,107.0,121.0,105.0,13.4,1505.3,325.1,-0.7,1.9,2470.103,13.32,0.038,16.6
2020-01-29T03:13:03,42.805,6.029,0.005,0.027,-0.003,108.0,120.0,104.0,13.4,1505.3,325.6,-0.7,1.8,2470.098,13.32,0.027,10.5
2020-01-29T03:16:03,42.805,6.029,0.009,0.018,0.017,108.0,120.0,105.0,13.3,1505.3,325.6,-0.7,1.8,2470.132,13.32,0.02,26.6
2020-01-29T03:19:03,42.805,6.029,0.025,0.02,-0.008,111.0,120.0,104.0,13.3,1505.3,323.4,-0.7,1.9,2470.085,13.32,0.032,51.3
2020-01-29T03:22:02,42.805,6.029,0.024,0.019,-0.016,108.0,119.0,105.0,13.4,1505.3,324.6,-0.7,1.8,2470.099,13.32,0.03,51.6
2020-01-29T03:25:03,42.805,6.029,0.006,0.009,-0.014,108.0,119.0,106.0,13.4,1505.3,326.2,-0.7,1.8,2470.084,13.32,0.01,33.7
2020-01-29T03:28:03,42.805,6.029,0.038,0.019,-0.02,109.0,120.0,103.0,13.4,1505.3,325.0,-0.7,1.9,2470.073,13.32,0.042,63.4
2020-01-29T03:31:03,42.805,6.029,0.001,0.025,0.001,107.0,119.0,103.0,13.3,1505.3,323.9,-0.7,1.9,2470.11,13.32,0.025,2.3
2020-01-29T03:34:03,42.805,6.029,0.015,0.028,-0.005,108.0,119.0,106.0,13.4,1505.3,324.4,-0.7,1.8,2470.077,13.32,0.031,28.2
2020-01-29T03:37:03,42.805,6.029,0.012,0.011,0.013,108.0,118.0,104.0,13.3,1505.3,328.4,-0.7,1.8,2470.098,13.33,0.016,47.5
2020-01-29T03:40:03,42.805,6.029,0.001,0.011,0.0,109.0,119.0,104.0,13.4,1505.3,324.8,-0.7,1.9,2470.085,13.33,0.011,5.2
2020-01-29T03:43:03,42.805,6.029,0.016,0.007,-0.017,108.0,118.0,105.0,13.4,1505.3,326.9,-0.7,1.8,2470.09,13.33,0.017,66.4
2020-01-29T03:46:03,42.805,6.029,0.017,0.015,-0.014,109.0,119.0,104.0,13.4,1505.3,326.9,-0.7,1.8,2470.12,13.33,0.022,48.6
2020-01-29T03:49:03,42.805,6.029,0.019,0.016,-0.02,108.0,119.0,104.0,13.4,1505.3,325.0,-0.7,1.9,2470.073,13.33,0.024,49.9
2020-01-29T03:52:03,42.805,6.029,0.019,0.009,0.004,109.0,118.0,105.0,13.4,1505.3,325.3,-0.7,1.8,2470.113,13.33,0.021,64.7
2020-01-29T03:55:03,42.805,6.029,0.026,0.028,0.006,109.0,119.0,104.0,13.4,1505.3,325.5,-0.7,1.9,2470.098,13.33,0.038,42.9
2020-01-29T03:58:03,42.805,6.029,0.04,0.0,-0.012,109.0,117.0,104.0,13.4,1505.3,323.2,-0.7,1.8,2470.082,13.33,0.04,90.0
2020-01-29T04:04:03,42.805,6.029,0.016,0.013,-0.002,109.0,119.0,104.0,13.4,1505.3,324.7,-0.7,1.9,2470.149,13.31,0.02,50.9
2020-01-29T04:07:03,42.805,6.029,0.014,0.018,0.009,108.0,120.0,104.0,13.3,1505.3,327.5,-0.7,1.8,2470.12,13.31,0.022,37.9
2020-01-29T04:10:03,42.805,6.029,0.027,0.015,-0.017,108.0,120.0,103.0,13.4,1505.3,327.7,-0.7,1.8,2470.13,13.32,0.03,60.9
2020-01-29T04:16:02,42.805,6.029,0.019,0.003,-0.004,109.0,119.0,103.0,13.3,1505.2,326.2,-0.7,1.8,2470.143,13.3,0.019,81.0
2020-01-29T04:19:03,42.805,6.029,0.016,0.005,0.021,109.0,118.0,103.0,13.4,1505.3,323.7,-0.8,1.9,2470.094,13.31,0.016,72.6
2020-01-29T04:22:03,42.805,6.029,0.023,0.037,0.01,108.0,118.0,103.0,13.4,1505.3,323.5,-0.7,1.8,2470.11,13.32,0.043,31.9
2020-01-29T04:25:03,42.805,6.029,0.0,0.016,-0.033,108.0,119.0,107.0,13.3,1505.3,326.0,-0.7,1.9,2470.122,13.32,0.016,0.0
2020-01-29T04:28:03,42.805,6.029,0.002,0.008,-0.01,108.0,120.0,104.0,13.4,1505.3,328.0,-0.7,1.8,2470.118,13.32,0.008,14.0
2020-01-29T04:31:03,42.805,6.029,0.016,0.006,-0.011,108.0,120.0,104.0,13.3,1505.3,326.4,-0.7,1.8,2470.112,13.32,0.017,69.4
2020-01-29T04:34:03,42.805,6.029,0.011,0.014,-0.02,108.0,120.0,104.0,13.4,1505.3,325.7,-0.7,1.9,2470.091,13.33,0.017,38.2
2020-01-29T04:37:03,42.805,6.029,0.027,0.014,-0.01,110.0,120.0,105.0,13.4,1505.3,324.0,-0.7,1.8,2470.116,13.33,0.03,62.6
2020-01-29T04:40:03,42.805,6.029,0.004,0.029,0.008,110.0,120.0,103.0,13.4,1505.3,327.2,-0.7,1.8,2470.098,13.33,0.029,7.8
2020-01-29T04:43:03,42.805,6.029,0.036,0.008,0.007,109.0,119.0,103.0,13.3,1505.3,326.2,-0.7,1.8,2470.135,13.33,0.036,77.5
2020-01-29T04:46:03,42.805,6.029,-0.011,0.022,0.015,109.0,120.0,104.0,13.4,1505.3,324.2,-0.7,1.8,2470.12,13.33,0.024,333.4
2020-01-29T04:49:03,42.805,6.029,-0.009,0.017,-0.008,108.0,120.0,105.0,13.4,1505.3,325.9,-0.7,1.8,2470.105,13.33,0.019,332.1
2020-01-29T04:52:03,42.805,6.029,0.032,0.032,0.016,108.0,119.0,102.0,13.3,1505.3,323.2,-0.7,1.9,2470.067,13.33,0.045,45.0
2020-01-29T04:55:03,42.805,6.029,-0.008,0.015,-0.025,107.0,119.0,104.0,13.4,1505.3,326.7,-0.7,1.8,2470.043,13.33,0.017,331.9
2020-01-29T04:58:03,42.805,6.029,0.016,0.023,0.003,108.0,117.0,104.0,13.4,1505.3,328.0,-0.7,1.9,2470.066,13.33,0.028,34.8
2020-01-29T05:04:03,42.805,6.029,0.0,0.041,0.005,108.0,118.0,105.0,13.3,1505.3,325.6,-0.8,1.8,2470.139,13.31,0.041,0.0
2020-01-29T05:07:03,42.805,6.029,0.004,0.021,-0.006,109.0,117.0,103.0,13.4,1505.3,328.4,-0.7,1.8,2470.054,13.31,0.021,10.8
2020-01-29T05:10:03,42.805,6.029,0.011,0.0,-0.011,108.0,118.0,104.0,13.3,1505.3,324.7,-0.7,1.8,2470.114,13.32,0.011,90.0
2020-01-29T05:13:03,42.805,6.029,0.006,0.022,-0.015,108.0,119.0,104.0,13.4,1505.3,325.0,-0.7,1.8,2470.079,13.32,0.022,15.3
2020-01-29T05:16:03,42.805,6.029,-0.005,0.007,-0.02,107.0,118.0,103.0,13.3,1505.3,327.5,-0.7,1.8,2470.088,13.32,0.008,324.5
2020-01-29T05:19:03,42.805,6.029,-0.021,0.012,0.0,108.0,118.0,104.0,13.4,1505.3,325.3,-0.7,1.8,2470.138,13.33,0.024,299.7
2020-01-29T05:22:03,42.805,6.029,0.025,0.0,-0.002,107.0,117.0,103.0,13.3,1505.3,323.8,-0.7,1.8,2470.096,13.33,0.025,90.0
2020-01-29T05:25:03,42.805,6.029,0.018,0.019,-0.008,108.0,119.0,105.0,13.4,1505.3,324.8,-0.7,1.8,2470.123,13.33,0.026,43.5
2020-01-29T05:28:03,42.805,6.029,0.001,0.038,0.029,108.0,120.0,104.0,13.4,1505.3,322.8,-0.7,1.9,2470.135,13.33,0.038,1.5
2020-01-29T05:31:03,42.805,6.029,0.001,0.038,0.013,108.0,122.0,104.0,13.3,1505.3,324.9,-0.7,1.8,2470.111,13.33,0.038,1.5
2020-01-29T05:34:03,42.805,6.029,0.02,0.017,-0.032,108.0,119.0,104.0,13.3,1505.3,324.3,-0.7,1.8,2470.114,13.33,0.026,49.6
2020-01-29T05:37:02,42.805,6.029,0.007,0.02,0.033,108.0,119.0,105.0,13.4,1505.3,325.2,-0.7,1.8,2470.116,13.33,0.021,19.3
2020-01-29T05:40:03,42.805,6.029,-0.003,0.013,0.002,108.0,120.0,104.0,13.4,1505.3,324.7,-0.7,1.8,2470.13,13.33,0.013,347.0
2020-01-29T05:43:03,42.805,6.029,0.022,0.03,-0.019,108.0,119.0,103.0,13.4,1505.3,325.5,-0.7,1.8,2470.089,13.33,0.037,36.3
2020-01-29T05:46:03,42.805,6.029,-0.008,0.014,0.0,108.0,121.0,103.0,13.4,1505.3,326.6,-0.7,1.8,2470.13,13.33,0.016,330.3
2020-01-29T05:49:03,42.805,6.029,0.026,0.03,-0.005,109.0,120.0,104.0,13.4,1505.3,326.1,-0.7,1.8,2470.121,13.33,0.039,40.9
2020-01-29T05:52:03,42.805,6.029,0.01,0.023,-0.007,107.0,120.0,103.0,13.4,1505.3,323.2,-0.7,1.8,2470.121,13.33,0.025,23.5
2020-01-29T05:55:03,42.805,6.029,0.029,0.032,0.002,107.0,119.0,105.0,13.3,1505.3,325.3,-0.7,1.9,2470.133,13.33,0.043,42.2
2020-01-29T05:58:03,42.805,6.029,0.018,0.014,-0.001,107.0,119.0,105.0,13.4,1505.3,325.3,-0.7,1.8,2470.102,13.33,0.022,52.1
2020-01-29T06:04:03,42.805,6.029,0.002,0.036,-0.004,108.0,120.0,104.0,13.4,1505.3,326.7,-0.7,1.8,2470.15,13.31,0.036,3.2
2020-01-29T06:07:03,42.805,6.029,0.0,-0.001,0.021,109.0,120.0,104.0,13.3,1505.3,328.1,-0.7,1.8,2470.128,13.31,0.001,180.0
2020-01-29T06:10:03,42.805,6.029,0.012,0.036,-0.002,107.0,120.0,102.0,13.3,1505.3,327.7,-0.7,1.8,2470.162,13.32,0.037,18.4
2020-01-29T06:13:03,42.805,6.029,0.02,0.019,-0.018,108.0,120.0,103.0,13.4,1505.3,328.2,-0.7,1.9,2470.147,13.32,0.027,46.5
2020-01-29T06:16:03,42.805,6.029,0.016,0.014,-0.008,107.0,120.0,103.0,13.4,1505.3,325.7,-0.7,1.8,2470.153,13.32,0.021,48.8
2020-01-29T06:19:03,42.805,6.029,0.032,0.013,0.005,107.0,119.0,104.0,13.4,1505.3,327.1,-0.7,1.8,2470.124,13.32,0.034,67.9
2020-01-29T06:22:03,42.805,6.029,0.016,0.029,-0.001,109.0,120.0,104.0,13.4,1505.3,323.4,-0.7,1.8,2470.141,13.33,0.033,28.9
2020-01-29T06:25:03,42.805,6.029,0.017,0.012,0.018,108.0,120.0,103.0,13.3,1505.3,324.9,-0.7,1.8,2470.157,13.33,0.02,54.8
2020-01-29T06:28:03,42.805,6.029,0.03,0.014,-0.017,108.0,119.0,104.0,13.4,1505.3,326.7,-0.7,1.9,2470.135,13.32,0.033,65.0
2020-01-29T06:31:03,42.805,6.029,0.025,0.014,0.0,106.0,121.0,102.0,13.4,1505.3,326.7,-0.7,1.9,2470.159,13.33,0.028,60.7
2020-01-29T06:34:03,42.805,6.029,0.009,0.02,0.04,107.0,119.0,103.0,13.4,1505.3,323.9,-0.7,1.8,2470.203,13.32,0.021,24.2
2020-01-29T06:37:03,42.805,6.029,0.001,0.037,0.027,107.0,121.0,104.0,13.4,1505.3,323.9,-0.7,1.8,2470.181,13.32,0.037,1.5
2020-01-29T06:40:03,42.805,6.029,0.028,0.026,-0.025,107.0,121.0,103.0,13.4,1505.3,326.4,-0.7,1.8,2470.126,13.33,0.038,47.1
2020-01-29T06:43:03,42.805,6.029,0.007,0.025,0.057,107.0,123.0,102.0,13.4,1505.3,326.1,-0.7,1.8,2470.153,13.33,0.025,15.6
2020-01-29T06:46:03,42.805,6.029,0.009,0.032,-0.006,107.0,121.0,103.0,13.4,1505.3,323.8,-0.7,1.8,2470.135,13.33,0.033,15.7
2020-01-29T06:49:03,42.805,6.029,-0.014,0.024,-0.033,106.0,122.0,102.0,13.4,1505.3,326.8,-0.7,1.8,2470.185,13.33,0.027,329.7
2020-01-29T06:52:03,42.805,6.029,0.01,0.021,0.01,106.0,120.0,102.0,13.4,1505.3,325.0,-0.7,1.8,2470.213,13.32,0.023,25.5
2020-01-29T06:55:03,42.805,6.029,-0.011,0.018,-0.05,107.0,120.0,102.0,13.4,1505.3,325.6,-0.8,1.8,2470.149,13.32,0.021,328.6
2020-01-29T06:58:03,42.805,6.029,0.002,0.016,-0.021,107.0,122.0,103.0,13.3,1505.3,325.8,-0.7,1.8,2470.169,13.33,0.016,7.1
2020-01-29T07:04:03,42.805,6.029,0.001,0.032,-0.018,105.0,121.0,103.0,13.4,1505.3,323.9,-0.7,1.8,2470.258,13.31,0.032,1.8
2020-01-29T07:07:03,42.805,6.029,-0.007,0.035,0.002,106.0,121.0,103.0,13.3,1505.3,327.9,-0.7,1.8,2470.2,13.31,0.035,348.7
2020-01-29T07:10:03,42.805,6.029,-0.001,0.012,-0.026,109.0,120.0,104.0,13.4,1505.3,324.8,-0.7,1.8,2470.219,13.32,0.012,355.2
2020-01-29T07:13:03,42.805,6.029,0.011,0.023,-0.01,107.0,121.0,103.0,13.4,1505.3,324.7,-0.7,1.8,2470.166,13.32,0.025,25.6
2020-01-29T07:16:03,42.805,6.029,-0.01,0.039,-0.051,105.0,123.0,103.0,13.4,1505.3,324.1,-0.7,1.8,2470.201,13.33,0.04,345.6
2020-01-29T07:19:03,42.805,6.029,0.003,0.028,0.011,106.0,121.0,103.0,13.4,1505.3,326.8,-0.7,1.8,2470.241,13.33,0.028,6.1
2020-01-29T07:22:03,42.805,6.029,-0.012,0.019,-0.041,105.0,122.0,103.0,13.3,1505.3,327.9,-0.7,1.8,2470.185,13.33,0.022,327.7
2020-01-29T07:25:03,42.805,6.029,0.008,0.026,0.011,105.0,122.0,103.0,13.3,1505.3,324.5,-0.7,1.8,2470.224,13.33,0.027,17.1
2020-01-29T07:28:03,42.805,6.029,0.009,0.022,-0.024,107.0,120.0,103.0,13.4,1505.3,326.3,-0.7,1.9,2470.215,13.33,0.023,22.2
2020-01-29T07:31:03,42.805,6.029,-0.013,0.016,0.001,107.0,121.0,102.0,13.4,1505.3,326.7,-0.7,1.8,2470.219,13.33,0.02,320.9
2020-01-29T07:34:03,42.805,6.029,0.004,0.038,0.008,107.0,120.0,104.0,13.3,1505.3,324.1,-0.7,1.8,2470.225,13.33,0.038,6.0
2020-01-29T07:37:03,42.805,6.029,0.01,0.003,0.004,107.0,121.0,101.0,13.4,1505.3,327.2,-0.7,1.8,2470.224,13.33,0.01,73.3
2020-01-29T07:40:03,42.805,6.029,0.011,0.054,0.018,106.0,119.0,103.0,13.4,1505.3,326.1,-0.7,1.9,2470.249,13.33,0.055,11.5
2020-01-29T07:43:02,42.805,6.029,-0.006,0.004,-0.027,106.0,119.0,102.0,13.4,1505.3,326.1,-0.7,1.8,2470.23,13.33,0.007,303.7
2020-01-29T07:46:03,42.805,6.029,0.029,0.039,0.025,106.0,120.0,104.0,13.3,1505.3,326.8,-0.7,1.8,2470.224,13.33,0.048,36.6
2020-01-29T07:49:03,42.805,6.029,-0.009,0.036,-0.002,105.0,120.0,103.0,13.4,1505.3,324.3,-0.7,1.8,2470.23,13.33,0.037,346.0
2020-01-29T07:52:03,42.805,6.029,0.032,0.033,0.0,106.0,121.0,103.0,13.4,1505.3,324.1,-0.7,1.8,2470.213,13.33,0.045,44.1
2020-01-29T07:55:03,42.805,6.029,0.021,0.014,-0.011,108.0,120.0,103.0,13.4,1505.3,325.8,-0.7,1.8,2470.251,13.33,0.025,56.3
2020-01-29T07:58:03,42.805,6.029,-0.014,0.025,-0.028,106.0,120.0,103.0,13.4,1505.3,325.7,-0.7,1.8,2470.276,13.33,0.028,330.7
2020-01-29T08:04:03,42.805,6.029,0.0,-0.001,-0.005,107.0,120.0,103.0,13.4,1505.3,324.2,-0.8,1.8,2470.27,13.31,0.001,180.0
2020-01-29T08:07:03,42.805,6.029,0.01,0.015,0.003,107.0,121.0,102.0,13.4,1505.3,324.5,-0.7,1.8,2470.298,13.32,0.018,33.7
2020-01-29T08:10:03,42.805,6.029,0.015,0.026,-0.016,107.0,120.0,103.0,13.3,1505.3,326.7,-0.7,1.8,2470.249,13.32,0.03,30.0
2020-01-29T08:13:03,42.805,6.029,0.008,0.022,-0.012,107.0,120.0,105.0,13.3,1505.3,326.6,-0.7,1.8,2470.27,13.33,0.023,20.0
2020-01-29T08:16:03,42.805,6.029,0.016,0.035,0.033,106.0,120.0,101.0,13.3,1505.3,327.0,-0.7,1.8,2470.297,13.33,0.038,24.6
2020-01-29T08:19:03,42.805,6.029,-0.004,0.016,-0.003,106.0,120.0,103.0,13.4,1505.3,325.2,-0.7,1.8,2470.273,13.33,0.016,346.0
2020-01-29T08:22:03,42.805,6.029,0.017,0.033,-0.023,107.0,120.0,104.0,13.4,1505.3,323.7,-0.7,1.8,2470.276,13.33,0.037,27.3
2020-01-29T08:25:03,42.805,6.029,0.0,0.016,-0.007,106.0,119.0,103.0,13.3,1505.3,326.2,-0.7,1.8,2470.232,13.33,0.016,0.0
2020-01-29T08:28:03,42.805,6.029,0.016,0.026,-0.024,107.0,122.0,104.0,13.3,1505.3,327.0,-0.7,1.8,2470.283,13.33,0.03,31.6
2020-01-29T08:31:03,42.805,6.029,0.013,0.031,0.009,107.0,119.0,103.0,13.4,1505.3,323.8,-0.7,1.8,2470.271,13.33,0.033,22.7
2020-01-29T08:34:03,42.805,6.029,-0.007,0.018,0.007,107.0,121.0,103.0,13.4,1505.3,327.1,-0.7,1.9,2470.296,13.33,0.019,338.8
2020-01-29T08:37:03,42.805,6.029,0.02,0.031,0.0,106.0,120.0,102.0,13.3,1505.3,324.3,-0.7,1.8,2470.264,13.33,0.036,32.8
2020-01-29T08:40:03,42.805,6.029,-0.007,0.02,0.004,106.0,120.0,103.0,13.3,1505.3,326.0,-0.7,1.8,2470.287,13.33,0.021,340.7
2020-01-29T08:43:03,42.805,6.029,0.0,0.017,0.007,106.0,118.0,103.0,13.4,1505.3,327.3,-0.7,1.8,2470.322,13.33,0.017,0.0
2020-01-29T08:46:03,42.805,6.029,-0.003,-0.014,0.009,108.0,120.0,103.0,13.4,1505.3,328.0,-0.8,1.8,2470.288,13.33,0.014,192.1
2020-01-29T08:49:03,42.805,6.029,0.034,0.033,0.026,109.0,118.0,103.0,13.3,1505.3,327.0,-0.7,1.8,2470.262,13.33,0.047,45.9
2020-01-29T08:52:03,42.805,6.029,0.024,0.033,-0.015,108.0,121.0,104.0,13.4,1505.3,327.7,-0.7,1.8,2470.296,13.33,0.04,36.0
2020-01-29T08:55:03,42.805,6.029,-0.006,0.03,-0.014,107.0,120.0,103.0,13.3,1505.3,325.6,-0.7,1.8,2470.313,13.33,0.03,348.7
2020-01-29T08:58:03,42.805,6.029,-0.003,0.011,0.03,109.0,119.0,104.0,13.4,1505.3,326.9,-0.7,1.8,2470.329,13.33,0.011,344.7
2020-01-29T09:04:03,42.805,6.029,-0.005,0.031,0.023,108.0,120.0,104.0,13.3,1505.3,325.5,-0.7,1.8,2470.333,13.31,0.031,350.8
2020-01-29T09:07:03,42.805,6.029,0.011,0.016,-0.006,107.0,121.0,103.0,13.3,1505.3,327.2,-0.7,1.8,2470.329,13.32,0.019,34.5
2020-01-29T09:10:03,42.805,6.029,0.013,0.017,-0.006,106.0,120.0,105.0,13.4,1505.3,327.6,-0.7,1.8,2470.306,13.32,0.021,37.4
2020-01-29T09:13:03,42.805,6.029,0.023,0.022,0.004,110.0,121.0,106.0,13.4,1505.3,327.3,-0.7,1.8,2470.322,13.33,0.031,46.3
2020-01-29T09:16:03,42.805,6.029,0.008,0.022,0.007,107.0,120.0,105.0,13.4,1505.3,324.2,-0.7,1.9,2470.317,13.33,0.023,20.0
2020-01-29T09:19:03,42.805,6.029,0.013,0.015,0.014,109.0,120.0,105.0,13.3,1505.3,327.2,-0.7,1.8,2470.297,13.33,0.019,40.9
2020-01-29T09:22:03,42.805,6.029,0.008,0.024,-0.022,109.0,122.0,105.0,13.4,1505.3,325.2,-0.7,1.9,2470.293,13.33,0.025,18.4
2020-01-29T09:25:03,42.805,6.029,0.0,0.016,-0.023,110.0,121.0,105.0,13.4,1505.3,326.3,-0.7,1.9,2470.312,13.33,0.016,0.0
2020-01-29T09:28:03,42.805,6.029,-0.003,0.025,0.0,109.0,119.0,105.0,13.3,1505.3,326.6,-0.7,1.8,2470.283,13.33,0.025,353.2
2020-01-29T09:31:03,42.805,6.029,0.008,-0.011,-0.004,109.0,122.0,104.0,13.4,1505.3,325.5,-0.7,1.9,2470.306,13.33,0.013,144.0
2020-01-29T09:34:03,42.805,6.029,0.032,0.016,0.02,109.0,120.0,106.0,13.4,1505.3,326.0,-0.7,1.8,2470.295,13.33,0.035,63.4
2020-01-29T09:37:03,42.805,6.029,0.011,0.021,0.037,109.0,121.0,105.0,13.4,1505.3,324.4,-0.7,1.8,2470.345,13.33,0.023,27.6
2020-01-29T09:40:03,42.805,6.029,0.0,0.002,0.007,108.0,120.0,104.0,13.4,1505.3,324.2,-0.7,1.8,2470.307,13.33,0.002,0.0
2020-01-29T09:43:03,42.805,6.029,0.021,0.018,0.003,110.0,120.0,104.0,13.3,1505.3,324.9,-0.7,1.8,2470.318,13.33,0.027,49.4
2020-01-29T09:46:03,42.805,6.029,0.007,0.008,-0.016,110.0,123.0,104.0,13.3,1505.3,326.0,-0.7,1.8,2470.288,13.33,0.01,41.2
2020-01-29T09:49:03,42.805,6.029,0.042,0.023,-0.01,110.0,121.0,104.0,13.3,1505.3,326.5,-0.7,1.9,2470.317,13.33,0.047,61.3
2020-01-29T09:52:03,42.805,6.029,0.024,0.014,-0.002,109.0,121.0,105.0,13.4,1505.3,326.5,-0.7,1.9,2470.341,13.33,0.027,59.7
2020-01-29T09:55:03,42.805,6.029,0.006,0.034,-0.001,109.0,122.0,104.0,13.4,1505.3,323.7,-0.7,1.8,2470.327,13.33,0.034,10.0
2020-01-29T09:58:03,42.805,6.029,-0.005,0.039,-0.009,109.0,119.0,104.0,13.4,1505.3,327.1,-0.7,1.8,2470.296,13.32,0.039,352.7
2020-01-29T10:04:03,42.805,6.029,0.023,0.014,-0.014,109.0,124.0,104.0,13.3,1505.3,327.7,-0.7,1.8,2470.336,13.31,0.026,58.7
2020-01-29T10:07:03,42.805,6.029,0.036,0.016,0.029,108.0,124.0,104.0,13.3,1505.3,324.2,-0.7,1.8,2470.324,13.31,0.039,66.0
2020-01-29T10:10:03,42.805,6.029,0.007,0.049,0.019,109.0,124.0,105.0,13.3,1505.3,324.8,-0.7,1.8,2470.358,13.32,0.049,8.1
2020-01-29T10:13:03,42.805,6.029,-0.002,0.03,0.005,109.0,121.0,104.0,13.4,1505.3,324.9,-0.7,1.8,2470.343,13.32,0.03,356.2
2020-01-29T10:16:03,42.805,6.029,0.025,0.037,-0.03,107.0,123.0,104.0,13.4,1505.3,326.5,-0.7,1.8,2470.347,13.32,0.044,34.0
2020-01-29T10:19:03,42.805,6.029,0.0,0.044,-0.002,108.0,123.0,103.0,13.4,1505.3,325.2,-0.7,1.8,2470.347,13.32,0.044,0.0